• In Deutschland
  • Länderverzeichnis
  • Für 7 Tage
  • Wassertemperatur
  • Satellitenkarten
  • Wetterkarte
  • Widgets
  • user-avatar
    Anmelden

    Stündliche Wetter Oran

    Heute, 23 Juni, Freitag

    Zeit Temperatur Niederschläge Wind Luftdruck Luftfeuchtigkeit
    00:00 +26°C° 0 mm 1 m/S 754 mmHg 60%
    01:00 +26°C° 0 mm 1 m/S 754 mmHg 63%
    02:00 +25°C° 0 mm 1 m/S 754 mmHg 66%
    03:00 +25°C° 0 mm 1 m/S 754 mmHg 68%
    04:00 +25°C° 0 mm 1 m/S 754 mmHg 67%
    05:00 +26°C° 0 mm 1 m/S 754 mmHg 65%
    06:00 +27°C° 0 mm 1 m/S 755 mmHg 62%
    07:00 +29°C° 0 mm 1 m/S 755 mmHg 53%
    08:00 +31°C° 0 mm 2 m/S 755 mmHg 45%
    09:00 +34°C° 0 mm 2 m/S 755 mmHg 37%
    10:00 +35°C° 0 mm 2 m/S 755 mmHg 34%
    11:00 +36°C° 0 mm 3 m/S 755 mmHg 31%
    12:00 +37°C° 0 mm 3 m/S 755 mmHg 30%
    13:00 +37°C° 0 mm 3 m/S 755 mmHg 29%
    14:00 +37°C° 0 mm 3 m/S 755 mmHg 28%
    15:00 +38°C° 0 mm 3 m/S 754 mmHg 27%
    16:00 +37°C° 0 mm 3 m/S 754 mmHg 29%
    17:00 +36°C° 0 mm 2 m/S 754 mmHg 30%
    18:00 +35°C° 0 mm 2 m/S 754 mmHg 32%
    19:00 +32°C° 0 mm 1 m/S 754 mmHg 37%
    20:00 +30°C° 0 mm 1 m/S 755 mmHg 42%
    21:00 +26°C° 0 mm 0 m/S 755 mmHg 47%
    22:00 +26°C° 0 mm 0 m/S 755 mmHg 47%
    23:00 +26°C° 0 mm 0 m/S 754 mmHg 48%

    Morgen, 24 Juni, Samstag

    Zeit Temperatur Niederschläge Wind Luftdruck Luftfeuchtigkeit
    00:00 +25°C° 0 mm 0 m/S 754 mmHg 49%
    01:00 +25°C° 0 mm 0 m/S 754 mmHg 50%
    02:00 +24°C° 0 mm 0 m/S 754 mmHg 51%
    03:00 +24°C° 0 mm 0 m/S 754 mmHg 52%
    04:00 +27°C° 0 mm 1 m/S 754 mmHg 49%
    05:00 +28°C° 0 mm 1 m/S 754 mmHg 46%
    06:00 +29°C° 0 mm 1 m/S 754 mmHg 43%
    07:00 +32°C° 0 mm 1 m/S 754 mmHg 36%
    08:00 +34°C° 0 mm 1 m/S 754 mmHg 29%
    09:00 +37°C° 0 mm 1 m/S 754 mmHg 22%
    10:00 +39°C° 0 mm 2 m/S 754 mmHg 20%
    11:00 +42°C° 0 mm 3 m/S 753 mmHg 18%
    12:00 +43°C° 0 mm 4 m/S 753 mmHg 16%
    13:00 +43°C° 0 mm 5 m/S 752 mmHg 17%
    14:00 +43°C° 0 mm 5 m/S 752 mmHg 17%
    15:00 +44°C° 0 mm 6 m/S 751 mmHg 17%
    16:00 +42°C° 0 mm 6 m/S 751 mmHg 19%
    17:00 +40°C° 0 mm 5 m/S 751 mmHg 21%
    18:00 +39°C° 0 mm 5 m/S 751 mmHg 23%
    19:00 +36°C° 0 mm 5 m/S 751 mmHg 26%
    20:00 +34°C° 0 mm 4 m/S 751 mmHg 30%
    21:00 +33°C° 0 mm 4 m/S 751 mmHg 33%
    22:00 +31°C° 0 mm 3 m/S 751 mmHg 33%
    23:00 +31°C° 0 mm 3 m/S 751 mmHg 32%

    übermorgen, 25 Juni, Sonntag

    Zeit Temperatur Niederschläge Wind Luftdruck Luftfeuchtigkeit
    00:00 +31°C° 0 mm 2 m/S 751 mmHg 32%
    01:00 +31°C° 0 mm 2 m/S 750 mmHg 32%
    02:00 +30°C° 0 mm 2 m/S 750 mmHg 32%
    03:00 +30°C° 0 mm 3 m/S 749 mmHg 32%
    04:00 +31°C° 0 mm 3 m/S 749 mmHg 30%
    05:00 +31°C° 0 mm 3 m/S 749 mmHg 29%
    06:00 +33°C° 0 mm 4 m/S 749 mmHg 28%
    07:00 +35°C° 0 mm 4 m/S 749 mmHg 24%
    08:00 +38°C° 0 mm 4 m/S 749 mmHg 20%
    09:00 +41°C° 0 mm 4 m/S 749 mmHg 15%
    10:00 +43°C° 0 mm 4 m/S 749 mmHg 14%
    11:00 +45°C° 0 mm 5 m/S 749 mmHg 13%
    12:00 +47°C° 0 mm 5 m/S 749 mmHg 12%
    13:00 +47°C° 0 mm 6 m/S 748 mmHg 12%
    14:00 +47°C° 0 mm 6 m/S 748 mmHg 13%
    15:00 +47°C° 0 mm 7 m/S 747 mmHg 13%
    16:00 +46°C° 0 mm 6 m/S 747 mmHg 14%
    17:00 +44°C° 0 mm 6 m/S 747 mmHg 16%
    18:00 +42°C° 0 mm 6 m/S 746 mmHg 18%
    19:00 +40°C° 0 mm 5 m/S 747 mmHg 21%
    20:00 +37°C° 0 mm 4 m/S 747 mmHg 24%
    21:00 +35°C° 0 mm 3 m/S 747 mmHg 28%
    22:00 +34°C° 0 mm 3 m/S 747 mmHg 34%
    23:00 +33°C° 0 mm 3 m/S 747 mmHg 40%

    26 Juni, Montag

    Zeit Temperatur Niederschläge Wind Luftdruck Luftfeuchtigkeit
    00:00 +32°C° 0 mm 4 m/S 747 mmHg 46%
    01:00 +30°C° 0 mm 3 m/S 747 mmHg 50%
    02:00 +29°C° 0 mm 2 m/S 747 mmHg 54%
    03:00 +28°C° 0 mm 2 m/S 747 mmHg 59%
    04:00 +29°C° 0 mm 2 m/S 747 mmHg 57%
    05:00 +29°C° 0 mm 2 m/S 748 mmHg 56%
    06:00 +29°C° 0 mm 2 m/S 748 mmHg 55%
    07:00 +31°C° 0 mm 2 m/S 748 mmHg 48%
    08:00 +35°C° 0 mm 3 m/S 749 mmHg 41%
    09:00 +37°C° 0 mm 3 m/S 749 mmHg 34%
    10:00 +38°C° 0 mm 3 m/S 749 mmHg 32%
    11:00 +39°C° 0 mm 3 m/S 749 mmHg 30%
    12:00 +40°C° 0 mm 3 m/S 749 mmHg 28%
    13:00 +40°C° 0 mm 3 m/S 749 mmHg 28%
    14:00 +40°C° 0 mm 3 m/S 748 mmHg 28%
    15:00 +40°C° 0 mm 3 m/S 748 mmHg 28%
    16:00 +39°C° 0 mm 3 m/S 748 mmHg 30%
    17:00 +38°C° 0 mm 2 m/S 748 mmHg 31%
    18:00 +36°C° 0 mm 2 m/S 747 mmHg 33%
    19:00 +35°C° 0 mm 2 m/S 748 mmHg 37%
    20:00 +33°C° 0 mm 3 m/S 748 mmHg 41%
    21:00 +31°C° 0 mm 3 m/S 749 mmHg 45%
    22:00 +31°C° 0 mm 3 m/S 749 mmHg 44%
    23:00 +31°C° 0 mm 3 m/S 749 mmHg 42%

    27 Juni, Dienstag

    Zeit Temperatur Niederschläge Wind Luftdruck Luftfeuchtigkeit
    00:00 +31°C° 0 mm 2 m/S 749 mmHg 41%
    01:00 +31°C° 0 mm 2 m/S 748 mmHg 42%
    02:00 +31°C° 0 mm 2 m/S 748 mmHg 43%
    03:00 +30°C° 0 mm 2 m/S 747 mmHg 44%
    04:00 +31°C° 0 mm 2 m/S 747 mmHg 43%
    05:00 +31°C° 0 mm 1 m/S 747 mmHg 42%
    06:00 +31°C° 0 mm 1 m/S 747 mmHg 42%
    07:00 +35°C° 0 mm 2 m/S 747 mmHg 36%
    08:00 +37°C° 0 mm 2 m/S 748 mmHg 31%
    09:00 +39°C° 0 mm 3 m/S 748 mmHg 25%
    10:00 +41°C° 0 mm 4 m/S 748 mmHg 24%
    11:00 +42°C° 0 mm 5 m/S 747 mmHg 23%
    12:00 +44°C° 0 mm 6 m/S 747 mmHg 21%
    13:00 +41°C° 0 mm 6 m/S 747 mmHg 23%
    14:00 +40°C° 0 mm 5 m/S 747 mmHg 25%
    15:00 +39°C° 0 mm 5 m/S 746 mmHg 28%
    16:00 +36°C° 0 mm 6 m/S 746 mmHg 29%
    17:00 +35°C° 0 mm 6 m/S 746 mmHg 31%
    18:00 +34°C° 0 mm 6 m/S 746 mmHg 33%
    19:00 +33°C° 0 mm 6 m/S 747 mmHg 34%
    20:00 +33°C° 0 mm 5 m/S 747 mmHg 35%
    21:00 +32°C° 0 mm 5 m/S 748 mmHg 35%
    22:00 +30°C° 0 mm 5 m/S 748 mmHg 35%
    23:00 +30°C° 0 mm 5 m/S 748 mmHg 35%

    28 Juni, Mittwoch

    Zeit Temperatur Niederschläge Wind Luftdruck Luftfeuchtigkeit
    00:00 +30°C° 0 mm 5 m/S 748 mmHg 35%
    01:00 +29°C° 0,1 mm 6 m/S 748 mmHg 39%
    02:00 +28°C° 0,1 mm 6 m/S 747 mmHg 42%
    03:00 +27°C° 0,1 mm 6 m/S 747 mmHg 46%
    04:00 +27°C° 0,1 mm 6 m/S 748 mmHg 48%
    05:00 +27°C° 0,1 mm 7 m/S 748 mmHg 51%
    06:00 +27°C° 0,1 mm 7 m/S 748 mmHg 54%
    07:00 +28°C° 0 mm 7 m/S 749 mmHg 50%
    08:00 +31°C° 0 mm 8 m/S 749 mmHg 47%
    09:00 +32°C° 0 mm 8 m/S 749 mmHg 43%
    10:00 +33°C° 0 mm 9 m/S 749 mmHg 41%
    11:00 +33°C° 0 mm 9 m/S 749 mmHg 38%
    12:00 +34°C° 0 mm 10 m/S 748 mmHg 35%
    13:00 +34°C° 0 mm 9 m/S 748 mmHg 34%
    14:00 +34°C° 0 mm 9 m/S 748 mmHg 33%
    15:00 +34°C° 0 mm 9 m/S 747 mmHg 31%
    16:00 +33°C° 0 mm 9 m/S 747 mmHg 33%
    17:00 +32°C° 0 mm 9 m/S 748 mmHg 34%
    18:00 +31°C° 0 mm 8 m/S 748 mmHg 35%
    19:00 +29°C° 0 mm 8 m/S 748 mmHg 40%
    20:00 +28°C° 0 mm 7 m/S 749 mmHg 45%
    21:00 +27°C° 0 mm 6 m/S 749 mmHg 49%
    22:00 +26°C° 0 mm 6 m/S 749 mmHg 52%
    23:00 +26°C° 0 mm 6 m/S 749 mmHg 55%
    Mehr zeigen